Location: Andershausen
(51.8462°N, 9.8595°E)
Time: 05:46:46
(UTC+00:00)

CZ-2D R/B - Pass Details

Date: 18 November 2025
Orbit: 525 x 597 km, 98.0° (Epoch: 11 December)

Event Time Altitude Azimuth Distance (km) Brightness Sun altitude
Rises 17:45:14 0° 175° (S) 2,794 6.9 -21.2°
Reaches altitude 10° 17:47:24 10° 180° (S) 1,909 6.1 -21.5°
Maximum altitude 17:51:29 56° 259° (W) 712 4.1 -22.1°
Drops below altitude 10° 17:55:39 10° 338° (NNW) 1,949 6.3 -22.8°
Sets 17:57:53 0° 343° (NNW) 2,859 7.2 -23.1°
